This is the latest recevied weather packets stored in our database for station/object KN6DHD. If no packets are shown the sender has not sent any weather packets the latest 10 day(s).
| Time | Temp. | Humidity | Pressure | Rain* | Wind** | Luminosity | Snow |
|---|---|---|---|---|---|---|---|
| 1778012116 | 16.67° C | 82% | 1016.4 hPa | 0 mm | - | 114 W/m² | - |
| 1778011813 | 16.67° C | 82% | 1016.4 hPa | 0 mm | - | 122 W/m² | - |
| 1778011511 | 16.67° C | 84% | 1016.3 hPa | 0 mm | - | 119 W/m² | - |
| 1778011208 | 16.67° C | 82% | 1016.4 hPa | 0 mm | - | 111 W/m² | - |
| 1778010904 | 16.67° C | 82% | 1016.6 hPa | 0 mm | - | 115 W/m² | - |
| 1778010601 | 16.67° C | 83% | 1016.5 hPa | 0 mm | - | 124 W/m² | - |
| 1778010299 | 16.67° C | 82% | 1016.5 hPa | 0 mm | - | 117 W/m² | - |
| 1778009998 | 16.67° C | 82% | 1016.6 hPa | 0 mm | - | 108 W/m² | - |
| 1778009696 | 17.22° C | 80% | 1016.4 hPa | 0 mm | - | 135 W/m² | - |
| 1778009394 | 17.22° C | 77% | 1016.4 hPa | 0 mm | - | 219 W/m² | - |
| 1778009092 | 17.22° C | 77% | 1016.2 hPa | 0 mm | - | 218 W/m² | - |
| 1778008789 | 17.78° C | 78% | 1016.5 hPa | 0 mm | - | 452 W/m² | - |
| 1778008488 | 18.33° C | 77% | 1016.3 hPa | 0 mm | - | 272 W/m² | - |
| 1778008184 | 17.78° C | 79% | 1016.3 hPa | 0 mm | - | 301 W/m² | - |
| 1778007879 | 17.22° C | 78% | 1016.5 hPa | 0 mm | - | 745 W/m² | - |
| 1778007575 | 17.22° C | 78% | 1016.5 hPa | 0 mm | - | 225 W/m² | - |
| 1778007273 | 17.22° C | 80% | 1016.4 hPa | 0 mm | - | 196 W/m² | - |
| 1778006968 | 17.78° C | 78% | 1016.6 hPa | 0 mm | - | 254 W/m² | - |
| 1778006666 | 17.22° C | 80% | 1016.3 hPa | 0 mm | - | 285 W/m² | - |
| 1778006362 | 16.67° C | 79% | 1016.6 hPa | 0 mm | - | 296 W/m² | - |
| 1778006059 | 16.67° C | 81% | 1016.5 hPa | 0 mm | - | 320 W/m² | - |
| 1778005756 | 16.11° C | 81% | 1016.2 hPa | 0 mm | - | 294 W/m² | - |
| 1778005453 | 16.11° C | 82% | 1016.6 hPa | 0 mm | - | 280 W/m² | - |
| 1778005149 | 16.11° C | 84% | 1016.4 hPa | 0 mm | - | 260 W/m² | - |
| 1778004847 | 15.56° C | 84% | 1016.3 hPa | 0 mm | - | 277 W/m² | - |
* Rain latest hour (hover to see other rain measurements)
** Current wind speed in m/s (hover to see current wind gust speed)